Content
SEND FEEDBACK

Daily
Averages
Monthly
Summary
Reunion

SAINT-MARIE, REUNION


Home > Africa > Reunion
Elevation: 82 feet     Latitude: 20 52S     Longitude: 055 31E

WEATHER
 
SELECT A DAY
Number of Records: 230,529;   Date Range: 7/1/96 - 9/16/14
 
SHARE

PRINT THIS DATA

[ ← Previous Day ]
WEATHER ALMANAC - FEBRUARY 5, 2013
[ Next Day → ]
[ °C ]   °F
Weather ElementAverageHighLow
Temperature81.9 °F87.8 °F (12:30 pm)77 °F (12:30 am)
Dewpoint75.1 °F79 °F (12:00 pm)71 °F (4:00 am)
Humidity78.7 %89 % (12:30 am)66 % (3:00 pm)
Barometer29.89 in29.93 in (10:00 pm)29.83 in (4:00 pm)
Wind Speed8.9 mph19.6 mph (7:00 pm)
Weather ElementAverage
Visibility7.5 mi
Wind DirectionWSW (243.9 °)

Weather ElementTotal
Precipitation---
Cooling Degree Days17.4 (Base 65)
Growing Degree Days32.4 (Base 50)
Averaged from 64 records on February 5, 2013
WEATHER CONDITIONS BREAKOUT
WIND DIRECTION BREAKOUT
WEATHER BY HOUR - FEBRUARY 5, 2013
[ °C ]   °F
Local TimeTemperatureDewpointHumidityBarometerVisibilityWind DirectionWind SpeedGust SpeedPrecipitationEventsConditions
12:00 AM78.8 °F73.4 °F83 %29.89 in6.2 miSouth (180°)4.6 mphPartly Cloudy
12:30 AM77.0 °F73.4 °F89 %29.89 in6.2 miSouth (190°)5.8 mphScattered Clouds
1:00 AM77.0 °F73.4 °F89 %29.89 in6.2 miSouth (190°)5.8 mphPartly Cloudy
1:30 AM77.0 °F71.6 °F83 %29.89 in6.2 miSSW (200°)4.6 mphPartly Cloudy
2:00 AM77.0 °F72.0 °F81 %29.88 in34.0 miSouth (190°)3.5 mphClear
2:00 AM77.0 °F71.6 °F83 %29.86 in6.2 miSouth (190°)3.5 mphMostly Cloudy
2:30 AM77.0 °F71.6 °F83 %29.86 in6.2 miSSW (200°)4.6 mphMostly Cloudy
3:00 AM77.0 °F71.6 °F83 %29.86 in6.2 miSouth (190°)4.6 mphMostly Cloudy
3:00 AM77.0 °F72.0 °F79 %29.87 in34.0 miSouth (190°)4.6 mphClear
3:30 AM77.0 °F71.6 °F83 %29.86 in6.2 miSouth (190°)5.8 mphPartly Cloudy
4:00 AM77.0 °F71.0 °F77 %29.87 in6.0 miSouth (190°)5.8 mphClear
4:00 AM77.0 °F71.6 °F83 %29.86 in6.2 miSouth (190°)5.8 mphMostly Cloudy
4:30 AM77.0 °F71.6 °F83 %29.86 in6.2 miSW (220°)5.8 mphPartly Cloudy
5:00 AM77.0 °F71.6 °F83 %29.86 in6.2 miWSW (240°)3.5 mphScattered Clouds
5:30 AM77.0 °F71.6 °F83 %29.89 in6.2 miWSW (250°)3.5 mphScattered Clouds
6:00 AM78.0 °F71.0 °F73 %29.89 in34.0 miSSW (200°)5.8 mphClear
6:04 AM77.0 °F71.6 °F83 %29.89 in6.2 miSSW (200°)5.8 mphScattered Clouds
6:30 AM78.8 °F71.6 °F78 %29.89 in6.2 miSW (220°)4.6 mphScattered Clouds
7:00 AM80.6 °F71.6 °F74 %29.89 in6.2 miWSW (250°)2.3 mphPartly Cloudy
7:30 AM82.4 °F73.4 °F74 %29.89 in6.2 miVariable1.2 mphPartly Cloudy
8:00 AM83.0 °F74.0 °F69 %29.92 in6.0 miNNW (330°)3.5 mphMostly Cloudy
8:00 AM84.2 °F75.2 °F74 %29.92 in6.2 miNNW (330°)3.5 mphScattered Clouds
8:30 AM84.2 °F75.2 °F74 %29.92 in6.2 miVariable3.5 mphScattered Clouds
9:00 AM84.0 °F77.0 °F75 %29.92 in6.0 miNNW (330°)4.6 mphMostly Cloudy
9:00 AM84.2 °F77.0 °F79 %29.92 in6.2 miNNW (330°)4.6 mphScattered Clouds
9:30 AM84.2 °F77.0 °F79 %29.92 in6.2 miWNW (300°)6.9 mphScattered Clouds
10:00 AM85.0 °F78.0 °F73 %29.92 in6.0 miNW (310°)8.1 mphPartly Cloudy
10:00 AM86.0 °F77.0 °F74 %29.92 in6.2 miNW (310°)8.1 mphScattered Clouds
10:30 AM86.0 °F78.8 °F79 %29.92 in6.2 miNW (310°)10.4 mphScattered Clouds
11:00 AM86.0 °F78.0 °F73 %29.92 in6.0 miNW (310°)10.4 mphPartly Cloudy
11:00 AM86.0 °F78.8 °F79 %29.92 in6.2 miNW (310°)10.4 mphScattered Clouds
11:30 AM86.0 °F78.8 °F79 %29.89 in6.2 miWNW (300°)11.5 mphScattered Clouds
12:00 PM86.0 °F78.8 °F79 %29.89 in6.2 miNW (310°)12.7 mphScattered Clouds
12:00 PM86.0 °F79.0 °F73 %29.91 in6.0 miNW (310°)12.7 mphPartly Cloudy
12:30 PM87.8 °F78.8 °F75 %29.89 in6.2 miWNW (300°)13.8 mphScattered Clouds
1:00 PM87.8 °F78.8 °F75 %29.89 in6.2 miNW (310°)13.8 mphScattered Clouds
1:30 PM87.8 °F78.8 °F75 %29.86 in6.2 miNW (310°)12.7 mphScattered Clouds
2:00 PM87.0 °F79.0 °F71 %29.88 in6.0 miWNW (300°)15.0 mphPartly Cloudy
2:00 PM87.8 °F78.8 °F75 %29.86 in6.2 miWNW (300°)15.0 mphScattered Clouds
2:30 PM87.8 °F77.0 °F70 %29.86 in6.2 miWNW (290°)13.8 mphScattered Clouds
3:00 PM87.8 °F77.0 °F70 %29.86 in6.2 miWNW (290°)16.1 mphScattered Clouds
3:00 PM87.0 °F77.0 °F66 %29.86 in6.0 miWNW (290°)16.1 mphPartly Cloudy
3:30 PM87.8 °F77.0 °F70 %29.86 in6.2 miWNW (290°)16.1 mphScattered Clouds
4:00 PM84.0 °F79.0 °F82 %29.86 in6.0 miWNW (300°)15.0 mphRainLight Rain Showers
4:00 PM84.2 °F78.8 °F84 %29.83 in5.6 miWNW (300°)15.0 mphRainLight Rain Showers
4:30 PM86.0 °F77.0 °F74 %29.83 in6.2 miWNW (290°)18.4 mphScattered Clouds
5:00 PM84.2 °F77.0 °F79 %29.83 in6.2 miWNW (300°)16.1 mphPartly Cloudy
5:30 PM84.2 °F77.0 °F79 %29.83 in6.2 miWNW (300°)16.1 mphPartly Cloudy
6:00 PM84.2 °F77.0 °F79 %29.83 in6.2 miWNW (300°)18.4 mphPartly Cloudy
6:00 PM84.0 °F76.0 °F71 %29.85 in6.0 miWNW (300°)18.4 mphScattered Clouds
7:00 PM82.4 °F75.2 °F79 %29.86 in6.2 miWNW (300°)19.6 mphMostly Cloudy
7:30 PM80.6 °F77.0 °F89 %29.86 in6.2 miWNW (300°)16.1 mphPartly Cloudy
8:00 PM81.0 °F76.0 °F80 %29.89 in6.0 miWNW (300°)12.7 mphScattered Clouds
8:00 PM80.6 °F75.2 °F84 %29.89 in6.2 miWNW (300°)13.8 mphPartly Cloudy
8:30 PM80.6 °F75.2 °F84 %29.89 in6.2 miWNW (300°)13.8 mphPartly Cloudy
9:00 PM80.6 °F73.4 °F79 %29.89 in6.2 miWest (270°)6.9 mphPartly Cloudy
9:00 PM80.0 °F74.0 °F77 %29.91 in6.0 miWest (270°)8.1 mphScattered Clouds
9:30 PM80.6 °F75.2 °F84 %29.92 in6.2 miVariable3.5 mphPartly Cloudy
10:00 PM79.0 °F74.0 °F81 %29.93 in6.0 miWSW (240°)5.8 mphPartly Cloudy
10:00 PM78.8 °F73.4 °F83 %29.92 in6.2 miWSW (240°)5.8 mphPartly Cloudy
10:30 PM78.8 °F73.4 °F83 %29.92 in6.2 miVariable3.5 mphPartly Cloudy
11:00 PM78.0 °F73.0 °F80 %29.93 in6.0 miSouth (180°)4.6 mph
11:00 PM78.8 °F73.4 °F83 %29.92 inSouth (180°)4.6 mphClear
11:30 PM77.0 °F73.4 °F89 %29.92 inVariable1.2 mphClear
Hourly data recorded from FMEE, located miles away from Saint-Marie, Reunion







STORIES FROM OUR PARTNERS